Weather History for Hurlburt Field, FL

Change the Weather History Date:

Wednesday, January 2, 2013

  Actual Average Record
Temperature  
Mean Temperature 58 °F -  
Max Temperature 68 °F 59 °F 75 °F (2003)
Min Temperature 48 °F 41 °F 24 °F (2001)
Degree Days  
Heating Degree Days 7    
Growing Degree Days 8 (Base 50)    
Moisture  
Dew Point 56 °F    
Average Humidity 92    
Maximum Humidity 100    
Minimum Humidity 73    
Precipitation  
Precipitation 0.01 in - - ()
Sea Level Pressure  
Sea Level Pressure 30.04 in    
Wind  
Wind Speed 10 mph (North)    
Max Wind Speed 18 mph    
Max Gust Speed 22 mph    
Visibility 10 miles    
Events Rain    
Averages and records for this station are not official NWS values.
T = Trace of Precipitation, MM = Missing Value Source: NWS Daily Summary

Daily Weather History Graph

Daily Weather History Graph

Search for Another Location

Airport:

Trip Planner

Search our weather history database for the weather conditions in past years. The results will help you decide how hot, cold, wet, or windy it might be!

Date:

Astronomy

Jan. 02, 2013 Rise Set
Actual Time 6:43 AM CST 4:58 PM CST
Civil Twilight 6:17 AM CST 5:24 PM CST
Nautical Twilight 5:47 AM CST 5:54 PM CST
Astronomical Twilight 5:18 AM CST 6:23 PM CST
Moon 10:05 PM CST (1/2) 9:47 AM CST (1/2)
Length of Visible Light 11h 06m
Length of Day
10h 14m
Waning Gibbous, 75% of the Moon is Illuminated
Jan 2
Waning Gibbous
Jan 4
Last Quarter
Jan 11
New
Jan 18
First Quarter
Jan 26
Full

Hourly Weather History & Observations

Time (CST) Temp. Dew Point Humidity Pressure Visibility Wind Dir Wind Speed Gust Speed Precip Events Conditions
12:01 AM 68.0 °F 68.0 °F 100% 29.96 in 6.0 mi West 6.9 mph - N/A Rain Light Rain
12:10 AM 68.0 °F 68.0 °F 100% 29.97 in 8.0 mi WSW 5.8 mph - N/A   Light Drizzle
12:12 AM 68.0 °F 68.0 °F 100% 29.97 in 10.0 mi WSW 6.9 mph - N/A   Overcast
12:28 AM 66.2 °F 66.2 °F 100% 29.97 in 10.0 mi West 6.9 mph - N/A   Overcast
12:50 AM 66.2 °F 66.2 °F 100% 29.96 in 10.0 mi West 4.6 mph - N/A   Mostly Cloudy
12:54 AM 66.2 °F 66.2 °F 100% 29.96 in 10.0 mi WNW 4.6 mph - N/A   Mostly Cloudy
12:55 AM 66.4 °F 66.4 °F 100% 29.96 in 10.0 mi WNW 5.8 mph - 0.01 in   Mostly Cloudy
1:04 AM 66.2 °F 66.2 °F 100% 29.96 in 10.0 mi NW 12.7 mph 18.4 mph N/A   Overcast
1:39 AM 60.8 °F 60.8 °F 100% 29.98 in 10.0 mi NNW 10.4 mph - N/A   Overcast
1:51 AM 60.8 °F 60.8 °F 100% 29.98 in 10.0 mi NNW 10.4 mph - N/A   Overcast
1:53 AM 60.8 °F 60.8 °F 100% 29.98 in 10.0 mi NNW 13.8 mph - N/A   Overcast
1:55 AM 59.9 °F 59.9 °F 100% 29.98 in 10.0 mi NNW 13.8 mph - N/A   Overcast
2:05 AM 59.0 °F 59.0 °F 100% 29.97 in 10.0 mi NNW 10.4 mph - N/A   Overcast
2:12 AM 59.0 °F 59.0 °F 100% 29.98 in 10.0 mi NNW 10.4 mph - N/A   Overcast
2:55 AM 58.3 °F 58.3 °F 100% 29.99 in 10.0 mi North 9.2 mph - N/A   Overcast
3:00 AM 59.0 °F 59.0 °F 100% 29.99 in 10.0 mi North 8.1 mph - N/A   Overcast
3:34 AM 57.2 °F 57.2 °F 100% 29.99 in 10.0 mi NNW 11.5 mph - N/A   Overcast
3:53 AM 57.2 °F 57.2 °F 100% 29.99 in 10.0 mi North 10.4 mph - N/A   Overcast
3:55 AM 56.7 °F 56.7 °F 100% 29.99 in 10.0 mi North 10.4 mph - N/A   Overcast
4:58 AM 55.4 °F 55.4 °F 100% 30.01 in 10.0 mi North 11.5 mph - N/A   Overcast
5:49 AM 53.6 °F 53.6 °F 100% 30.02 in 10.0 mi North 12.7 mph - N/A   Overcast
5:55 AM 54.0 °F 54.0 °F 100% 30.02 in 10.0 mi North 12.7 mph - 0.00 in   Overcast
6:13 AM 53.6 °F 53.6 °F 100% 30.04 in 10.0 mi North 13.8 mph - N/A   Overcast
6:22 AM 53.6 °F 53.6 °F 100% 30.04 in 10.0 mi North 15.0 mph - N/A   Overcast
6:31 AM 53.6 °F 53.6 °F 100% 30.04 in 10.0 mi North 12.7 mph - N/A   Overcast
6:55 AM 53.2 °F 53.2 °F 100% 30.05 in 10.0 mi North 12.7 mph - N/A   Overcast
7:09 AM 53.6 °F 53.6 °F 100% 30.05 in 10.0 mi NNE 13.8 mph - N/A   Overcast
7:10 AM 53.6 °F 53.6 °F 100% 30.05 in 10.0 mi NNE 13.8 mph - N/A   Overcast
7:23 AM 53.6 °F 53.6 °F 100% 30.06 in 10.0 mi North 12.7 mph - N/A   Overcast
7:55 AM 54.0 °F 54.0 °F 100% 30.07 in 10.0 mi North 15.0 mph 21.9 mph N/A   Overcast
8:11 AM 53.6 °F 53.6 °F 100% 30.08 in 10.0 mi North 16.1 mph 20.7 mph N/A   Overcast
8:55 AM 55.4 °F 55.4 °F 100% 30.10 in 10.0 mi North 12.7 mph - N/A   Overcast
9:55 AM 57.7 °F 55.2 °F 91% 30.10 in 10.0 mi NNE 11.5 mph - N/A   Overcast
10:15 AM 59.0 °F 55.4 °F 88% 30.10 in 10.0 mi NNE 10.4 mph - N/A   Scattered Clouds
10:17 AM 59.0 °F 55.4 °F 88% 30.10 in 10.0 mi NNE 10.4 mph - N/A   Mostly Cloudy
10:22 AM 60.8 °F 55.4 °F 82% 30.10 in 10.0 mi NNE 9.2 mph - N/A   Mostly Cloudy
10:55 AM 60.3 °F 55.6 °F 85% 30.09 in 10.0 mi NNE 8.1 mph - N/A   Overcast
11:07 AM 60.8 °F 55.4 °F 82% 30.09 in 10.0 mi North 10.4 mph - N/A   Overcast
11:55 AM 62.2 °F 55.6 °F 79% 30.07 in 10.0 mi North 10.4 mph - N/A   Overcast
12:55 PM 62.8 °F 55.2 °F 76% 30.04 in 10.0 mi North 9.2 mph - N/A   Overcast
1:17 PM 64.4 °F 55.4 °F 73% 30.04 in 10.0 mi NNE 10.4 mph - N/A Rain Light Rain
1:19 PM 64.4 °F 55.4 °F 73% 30.04 in 10.0 mi NNE 9.2 mph - N/A   Overcast
1:55 PM 62.1 °F 53.8 °F 74% 30.03 in 10.0 mi North 8.1 mph - 0.00 in   Overcast
2:55 PM 60.6 °F 53.2 °F 77% 30.05 in 10.0 mi North 12.7 mph - N/A   Overcast
3:30 PM 57.2 °F 51.8 °F 82% 30.05 in 10.0 mi North 12.7 mph - N/A   Overcast
3:32 PM 57.2 °F 51.8 °F 82% 30.05 in 10.0 mi North 10.4 mph - N/A   Overcast
3:43 PM 57.2 °F 51.8 °F 82% 30.05 in 10.0 mi North 12.7 mph - N/A Rain Light Rain
3:55 PM 57.4 °F 52.0 °F 82% 30.06 in 10.0 mi North 8.1 mph - 0.00 in   Light Drizzle
3:58 PM 57.2 °F 51.8 °F 82% 30.07 in 10.0 mi North 10.4 mph - N/A   Overcast
4:08 PM 57.2 °F 51.8 °F 82% 30.06 in 10.0 mi North 10.4 mph - N/A Rain Light Rain
4:23 PM 57.2 °F 51.8 °F 82% 30.07 in 10.0 mi North 9.2 mph - N/A   Overcast
4:55 PM 56.8 °F 51.6 °F 83% 30.08 in 10.0 mi North 8.1 mph - 0.00 in   Overcast
5:55 PM 55.9 °F 51.3 °F 84% 30.12 in 10.0 mi NNW 10.4 mph - N/A   Overcast
6:55 PM 53.4 °F 49.6 °F 87% 30.12 in 10.0 mi North 12.7 mph - N/A   Overcast
7:55 PM 52.3 °F 48.9 °F 88% 30.13 in 10.0 mi North 12.7 mph - N/A   Overcast
8:55 PM 51.1 °F 47.7 °F 88% 30.12 in 10.0 mi NNE 15.0 mph - N/A   Overcast
9:55 PM 50.5 °F 47.5 °F 89% 30.14 in 10.0 mi North 18.4 mph - N/A   Overcast
10:55 PM 49.5 °F 46.8 °F 90% 30.15 in 10.0 mi North 13.8 mph - N/A   Overcast
11:55 PM 48.9 °F 45.9 °F 89% 30.16 in 10.0 mi North 12.7 mph - N/A   Overcast
11:59 PM 48.2 °F 46.4 °F 93% 30.15 in 10.0 mi North 12.7 mph - N/A   Light Drizzle